TimeEDT,TemperatureF,Dew PointF,Humidity,Sea Level PressureIn,VisibilityMPH,Wind Direction,Wind SpeedMPH,Gust SpeedMPH,PrecipitationIn,Events,Conditions,WindDirDegrees,DateUTC
12:53 AM,75.9,73.0,91,30.03,9.0,Calm,Calm,-,N/A,,Clear,0,2013-07-19 04:53:00
1:53 AM,75.0,73.0,94,30.02,8.0,Calm,Calm,-,N/A,,Clear,0,2013-07-19 05:53:00
2:53 AM,73.0,72.0,96,30.01,5.0,Calm,Calm,-,N/A,,Clear,0,2013-07-19 06:53:00
3:53 AM,73.9,72.0,93,30.01,6.0,SSW,3.5,-,N/A,,Clear,210,2013-07-19 07:53:00
4:53 AM,75.0,73.9,96,30.01,5.0,SW,4.6,-,N/A,,Clear,220,2013-07-19 08:53:00
5:53 AM,73.9,73.0,97,30.01,4.0,WSW,5.8,-,N/A,,Clear,240,2013-07-19 09:53:00
6:53 AM,73.9,73.0,97,30.01,3.0,SW,4.6,-,N/A,,Clear,230,2013-07-19 10:53:00
7:03 AM,73.4,73.4,100,30.04,2.5,SW,4.6,-,N/A,,Clear,230,2013-07-19 11:03:00
7:11 AM,73.4,73.4,100,30.04,3.0,SW,4.6,-,N/A,,Clear,230,2013-07-19 11:11:00
7:27 AM,75.2,73.4,94,30.04,2.5,WSW,4.6,-,N/A,,Clear,240,2013-07-19 11:27:00
7:53 AM,75.0,73.9,96,30.01,3.0,SW,5.8,-,N/A,,Clear,230,2013-07-19 11:53:00
8:53 AM,79.0,73.9,84,30.02,5.0,WSW,6.9,-,N/A,,Haze,250,2013-07-19 12:53:00
9:53 AM,82.0,73.9,76,30.02,7.0,West,8.1,-,N/A,,Clear,260,2013-07-19 13:53:00
10:53 AM,84.0,73.9,72,30.02,9.0,West,9.2,-,N/A,,Clear,260,2013-07-19 14:53:00
11:53 AM,86.0,73.0,65,30.02,10.0,Variable,6.9,-,N/A,,Partly Cloudy,0,2013-07-19 15:53:00
12:53 PM,87.1,72.0,61,30.01,10.0,WSW,8.1,-,N/A,,Clear,250,2013-07-19 16:53:00
1:53 PM,86.0,73.0,65,29.99,10.0,WSW,9.2,-,N/A,,Partly Cloudy,240,2013-07-19 17:53:00
2:49 PM,87.8,73.4,62,29.99,10.0,WSW,9.2,16.1,N/A,Thunderstorm,Thunderstorm,240,2013-07-19 18:49:00
2:53 PM,88.0,73.0,61,29.96,10.0,WNW,8.1,16.1,N/A,Thunderstorm,Thunderstorm,290,2013-07-19 18:53:00
3:12 PM,87.8,75.2,66,29.98,10.0,West,5.8,-,N/A,,Mostly Cloudy,270,2013-07-19 19:12:00
3:53 PM,89.1,72.0,57,29.94,10.0,WSW,9.2,17.3,N/A,,Partly Cloudy,240,2013-07-19 19:53:00
4:53 PM,89.1,71.1,55,29.91,10.0,WSW,10.4,-,N/A,,Partly Cloudy,250,2013-07-19 20:53:00
5:53 PM,87.1,72.0,61,29.90,10.0,WSW,8.1,-,N/A,,Partly Cloudy,240,2013-07-19 21:53:00
6:53 PM,87.1,71.1,59,29.88,10.0,SW,9.2,-,N/A,,Clear,220,2013-07-19 22:53:00
7:53 PM,84.9,72.0,65,29.89,10.0,SW,5.8,-,N/A,,Clear,220,2013-07-19 23:53:00
8:53 PM,82.9,72.0,69,29.89,10.0,SSW,6.9,-,N/A,,Clear,210,2013-07-20 00:53:00
9:53 PM,79.0,73.0,82,29.90,10.0,SW,3.5,-,N/A,,Clear,220,2013-07-20 01:53:00
10:53 PM,79.0,71.1,77,29.91,10.0,SSW,3.5,-,N/A,,Clear,200,2013-07-20 02:53:00
11:53 PM,78.1,71.1,79,29.91,10.0,SW,5.8,-,N/A,,Clear,230,2013-07-20 03:53:00